If you wish to contribute or participate in the discussions about articles you are invited to join SKYbrary as a registered user

 Actions

Arctic Village Airport

From SKYbrary Wiki

PARC
Airport
ICAO: PARC – IATA: ARC
Summary
Name Arctic Village Airport
Region North America
Territory Alaska US.gif
Location , Alaska
Serving Arctic Village
Elevation 637.642 m
2,092 ft
2,092 ft637.642 m
Type medium airport
Coordinates 68° 6' 52.92" N, 145° 34' 44.40" W
Runways
Designator Length Width Surface ROPS
2/20 1372 m4,501.312 ft
23 m75.459 ft
GVL /


METAR
Observation PARC 210756Z AUTO 00000KT 9SM SCT070 11/03 A2992 RMK AO2 SLP158 T01110033
Station Arctic Village, Arctic Village Airport
Date/Time 21 July 2019 07:56:00
Wind direction
Wind speed 00 kts
Lowest cloud amount scattered clouds
Temperature 11.1°C
Dew point 3.3°C
Humidity 58%
QNH hPa
Weather condition n/a